STARLINK W (59942 NORAD) Tracking and Keplerian Element Data

This shows tracking and keplerian element data for the satellite.

Feedback or suggestion? Click here.




ElementValue
Catalog59942
NameSTARLINK W
Epoch Orbit228
Epoch Day160.16667824
Epoch Year2024
RAAN22.3905
Inclination43.0027
Eccentricity0.0001894
Argument of Perigee279.7873
Mean Anonmoly178.7849
Mean Motion15.93517705
Decay Rate-0.01067232
L11 59942U 24106W 24160.16667824 -.01067232 34542-3 -28633-2 0 9993
L22 59942 43.0027 22.3905 0001894 279.7873 178.7849 15.93517705 2282



Live tracking and technical data element details for STARLINK W (NORAD 59942). STARLINK W can be tracked NOW for your location showing map with azimuth and elevation plus other details from your city location.







IsCatalogInMostPopularTable: catalog: 59942, numindb: 12
Update: records affected: 1



GetName: 59942 STARLINK W

Hit Count: updated at: Tue, 16 Jul 2024 04:00:41 GMT